Location: Unnamed Road
(35.9029°N, 51.9749°E)
Time: 22:30:57
(UTC+04:30)

deb Explorer IX - Visible Passes

Search period start: 06 June 2020 00:00
Search period end: 16 June 2020 00:00
Orbit: 546 x 1100 km, 38.8° (Epoch: 06 June)

Date Brightness Start Highest point End Pass type
(mag) Time Alt. Az. Time Alt. Az. Time Alt. Az.
06 Jun ? 21:31:45 10° WNW 21:36:03 58° SSW 21:38:58 23° SE visible
06 Jun ? 23:19:37 10° WSW 23:20:17 12° WSW 23:20:17 12° WSW visible
07 Jun ? 21:09:16 10° WNW 21:13:28 56° SSW 21:17:18 15° SE visible
07 Jun ? 22:57:15 10° WSW 22:58:37 14° SW 22:58:37 14° SW visible
08 Jun ? 20:46:46 10° W 20:50:53 54° SSW 20:55:28 10° SE visible
08 Jun ? 22:34:55 10° WSW 22:37:00 14° SW 22:37:00 14° SW visible
09 Jun ? 22:12:35 10° WSW 22:14:44 13° SW 22:15:25 13° SSW visible
10 Jun ? 21:50:16 10° WSW 21:52:07 12° SW 21:53:53 10° SSW visible
11 Jun ? 21:28:01 10° SW 21:29:28 11° SW 21:30:59 10° SSW visible
12 Jun ? 21:05:48 10° SW 21:06:52 11° SW 21:07:55 10° SSW visible
